Regional Weather Roundup
Issued by NWS Spokane, WA

Home | Current Version | Previous Version | Text Only | Print | Product List | Glossary On
Versions: 1 2 3 4 5 6 7 8 9 10 11 12 13 14 15 16 17 18 19 20 21 22 23 24 25 26 27 28 29 30 31 32 33 34 35 36 37 38 39 40 41 42 43 44 45 46 47 48 49 50
000
NZUS01 KOTX 311510
RWROTX
EASTERN WASHINGTON/NORTHERN IDAHO ROUNDUP
NATIONAL WEATHER SERVICE, SPOKANE WA
800 AM PDT FRI JUL 31 2015

Note: "fair" indicated few or no clouds below 12,000 feet with no
significant weather and/or obstructions to visibility.

...NORTHEAST WASHINGTON AND NORTHERN IDAHO PANHANDLE...

CITY           SKY/WX    TMP DP  RH WIND       PRES   REMARKS
SPOKANE INTL   MOSUNNY   71  45  39 NE3       30.14R
SPOKANE DOWNTO SUNNY     68  46  45 CALM      30.14R
COEUR D ALENE  SUNNY     70  48  46 NE12      30.14S
DEER PARK      SUNNY     68  42  38 CALM      30.13S
SANDPOINT      SUNNY     64  43  45 CALM      30.15S
BONNERS FERRY  FAIR      66  41  39 CALM      30.17S

...SOUTHEAST WASHINGTON AND SOUTHERN IDAHO PANHANDLE...

CITY           SKY/WX    TMP DP  RH WIND       PRES   REMARKS
WALLA WALLA    SUNNY     84  33  16 SW3       30.05R
PULLMAN/MOSCOW SUNNY     76  39  26 E13       30.16R
LEWISTON       SUNNY     71  42  35 NE6       30.11R
LOWELL           N/A     59  48  67 N5        30.22S

...COLUMBIA BASIN...

CITY           SKY/WX    TMP DP  RH WIND       PRES   REMARKS
EPHRATA        SUNNY     77  36  22 NE6       30.06R
MOSES LAKE     SUNNY     72  37  28 N5        30.06R
TRI CITIES     SUNNY     71  46  40 E6        30.03R
HERMISTON      SUNNY     75  38  26 CALM      30.03R
PENDLETON      SUNNY     74  33  22 SE3       30.07R

...EAST SLOPES CASCADES...

CITY           SKY/WX    TMP DP  RH WIND       PRES   REMARKS
THE DALLES     SUNNY     72  48  42 W6        30.02S
YAKIMA         SUNNY     75  47  36 W7        30.07R
ELLENSBURG     SUNNY     70  44  39 E5        30.11R
WENATCHEE      SUNNY     74  37  26 W8        30.07R
OMAK           SUNNY     73  35  25 N9        30.09R

...SOUTHERN BRITISH COLUMBIA...

CITY           SKY/WX    TMP DP  RH WIND       PRES   REMARKS
PENTICTON      SUNNY     70  46  43 E2        30.10S
CASTLEGAR      MOSUNNY   63  50  63 CALM      30.15S
CRANBROOK      MOSUNNY   64  43  45 CALM      30.21S

...WESTERN MONTANA...

CITY           SKY/WX    TMP DP  RH WIND       PRES   REMARKS
MISSOULA       CLOUDY    60  42  51 CALM      30.28S

...NEIGHBORING CITIES...

CITY           SKY/WX    TMP DP  RH WIND       PRES   REMARKS
SEATTLE        MOSUNNY   70  51  51 CALM      30.11R
CALGARY        MOSUNNY   63  45  51 SW6       30.17F



USA.gov is the U.S. government's official web portal to all federal, state and local government web resources and services.